Nashua, NH

6:08 AM EST on January 23, 2017 (GMT -0500)
Boire

Weather History for KASH - October, 2012

Change the Weather History Date:

Wednesday, October 3, 2012

  Actual Average Record
Temperature  
Mean Temperature 62 °F -  
Max Temperature 64 °F 66 °F 88 °F (1950)
Min Temperature 59 °F 43 °F 28 °F (1965)
Degree Days  
Heating Degree Days 4    
Growing Degree Days 12 (Base 50)    
Moisture  
Dew Point 60 °F    
Average Humidity 94    
Maximum Humidity 100    
Minimum Humidity 88    
Precipitation  
Precipitation 0.06 in - - ()
Sea Level Pressure  
Sea Level Pressure 30.11 in    
Wind  
Wind Speed 1 mph (NE)    
Max Wind Speed 7 mph    
Max Gust Speed -    
Visibility 3 miles    
Events Fog , Rain    
Averages and records for this station are not official NWS values.
T = Trace of Precipitation, MM = Missing Value Source: NWS Daily Summary

Daily Weather History Graph

Daily Weather History Graph

Search for Another Location

Airport or City:

Trip Planner

Search our weather history database for the weather conditions in past years. The results will help you decide how hot, cold, wet, or windy it might be!

Date:

Astronomy

Oct. 03, 2012 Rise Set
Actual Time 6:46 AM EDT 6:23 PM EDT
Civil Twilight 6:17 AM EDT 6:51 PM EDT
Nautical Twilight 5:45 AM EDT 7:23 PM EDT
Astronomical Twilight 5:11 AM EDT 7:56 PM EDT
Moon 8:07 PM EDT (10/3) 10:12 AM EDT (10/3)
Length of Visible Light 12h 33m
Length of Day
11h 37m
Waning Gibbous, 89% of the Moon is Illuminated
Oct 3
Waning Gibbous
Oct 8
Last Quarter
Oct 15
New
Oct 21
First Quarter
Oct 29
Full

Hourly Weather History & Observations

Time (EDT) Temp. Dew Point Humidity Pressure Visibility Wind Dir Wind Speed Gust Speed Precip Events Conditions
12:08 AM 60.8 °F 57.2 °F 88% 30.06 in 9.0 mi Calm Calm - N/A   Overcast
12:51 AM 59.9 °F 57.9 °F 93% 30.07 in 9.0 mi Calm Calm - N/A   Overcast
1:41 AM 60.8 °F 57.2 °F 88% 30.06 in 10.0 mi Calm Calm - N/A   Overcast
1:51 AM 59.9 °F 57.9 °F 93% 30.06 in 10.0 mi Calm Calm - N/A   Overcast
2:51 AM 59.9 °F 57.9 °F 93% 30.06 in 2.5 mi Calm Calm - N/A   Mostly Cloudy
3:00 AM 60.8 °F 57.2 °F 88% 30.06 in 1.5 mi Calm Calm - N/A   Mostly Cloudy
3:15 AM 60.8 °F 57.2 °F 88% 30.05 in 2.5 mi Calm Calm - 0.01 in   Clear
3:37 AM 60.8 °F 57.2 °F 88% 30.06 in 2.0 mi Calm Calm - 0.01 in   Partly Cloudy
3:51 AM 59.9 °F 57.9 °F 93% 30.07 in 1.8 mi Calm Calm - 0.01 in   Mostly Cloudy
4:03 AM 60.8 °F 57.2 °F 88% 30.07 in 2.0 mi NNW 3.5 mph - N/A   Scattered Clouds
4:21 AM 60.8 °F 57.2 °F 88% 30.06 in 1.8 mi Calm Calm - N/A   Mostly Cloudy
4:38 AM 60.8 °F 57.2 °F 88% 30.06 in 2.0 mi Calm Calm - N/A   Partly Cloudy
4:51 AM 59.9 °F 57.9 °F 93% 30.07 in 2.0 mi Calm Calm - N/A   Partly Cloudy
5:11 AM 60.8 °F 57.2 °F 88% 30.07 in 1.5 mi Calm Calm - N/A   Mostly Cloudy
5:32 AM 60.8 °F 57.2 °F 88% 30.08 in 1.2 mi Calm Calm - N/A   Mostly Cloudy
5:51 AM 59.9 °F 57.9 °F 93% 30.09 in 1.2 mi Calm Calm - N/A   Mostly Cloudy
6:37 AM 60.8 °F 59.0 °F 94% 30.08 in 1.0 mi Calm Calm - 0.00 in Rain Light Rain
6:51 AM 59.9 °F 59.0 °F 97% 30.10 in 1.2 mi Calm Calm - 0.00 in Rain Light Rain
7:01 AM 60.8 °F 59.0 °F 94% 30.09 in 1.5 mi Calm Calm - 0.00 in   Mostly Cloudy
7:11 AM 60.8 °F 59.0 °F 94% 30.09 in 1.0 mi Calm Calm - 0.00 in   Mist
7:19 AM 60.8 °F 59.0 °F 94% 30.09 in 0.8 mi Calm Calm - 0.00 in   Mist
7:31 AM 60.8 °F 59.0 °F 94% 30.10 in 1.2 mi Calm Calm - 0.01 in   Mostly Cloudy
7:39 AM 60.8 °F 59.0 °F 94% 30.10 in 1.8 mi Calm Calm - 0.01 in   Mostly Cloudy
7:51 AM 59.9 °F 59.0 °F 97% 30.11 in 1.0 mi NW 3.5 mph - 0.01 in   Overcast
8:02 AM 60.8 °F 59.0 °F 94% 30.10 in 1.5 mi Calm Calm - N/A   Mostly Cloudy
8:20 AM 60.8 °F 59.0 °F 94% 30.11 in 1.0 mi Calm Calm - N/A   Mist
8:30 AM 60.8 °F 59.0 °F 94% 30.12 in 1.5 mi NNW 3.5 mph - N/A   Mostly Cloudy
8:39 AM 60.8 °F 59.0 °F 94% 30.11 in 2.5 mi NNW 3.5 mph - N/A   Scattered Clouds
8:51 AM 59.9 °F 59.0 °F 97% 30.13 in 2.0 mi Calm Calm - N/A   Mostly Cloudy
9:28 AM 60.8 °F 60.8 °F 100% 30.12 in 2.0 mi Calm Calm - 0.00 in Rain Light Rain
9:35 AM 60.8 °F 60.8 °F 100% 30.12 in 1.2 mi Calm Calm - 0.00 in Rain Light Rain
9:51 AM 61.0 °F 59.9 °F 96% 30.12 in 2.5 mi NNE 3.5 mph - 0.00 in   Mostly Cloudy
9:58 AM 60.8 °F 60.8 °F 100% 30.12 in 4.0 mi Calm Calm - N/A   Mostly Cloudy
10:51 AM 61.9 °F 59.9 °F 93% 30.13 in 0.8 mi Calm Calm - N/A   Mostly Cloudy
11:11 AM 62.6 °F 60.8 °F 94% 30.12 in 0.5 mi ENE 3.5 mph - N/A Fog Fog
11:20 AM 62.6 °F 60.8 °F 94% 30.11 in 1.0 mi NE 3.5 mph - 0.01 in   Mist
11:25 AM 62.6 °F 60.8 °F 94% 30.12 in 1.5 mi Variable 3.5 mph - 0.01 in   Mostly Cloudy
11:43 AM 62.6 °F 60.8 °F 94% 30.12 in 1.2 mi North 4.6 mph - 0.01 in   Mostly Cloudy
11:51 AM 61.9 °F 61.0 °F 97% 30.13 in 1.2 mi NNW 5.8 mph - 0.01 in Rain Light Rain
12:07 PM 62.6 °F 60.8 °F 94% 30.13 in 1.0 mi North 4.6 mph - 0.01 in Rain Rain
12:25 PM 62.6 °F 60.8 °F 94% 30.13 in 1.8 mi Calm Calm - 0.02 in Rain Light Rain
12:32 PM 62.6 °F 60.8 °F 94% 30.12 in 3.0 mi Calm Calm - 0.02 in Rain Light Rain
12:37 PM 62.6 °F 60.8 °F 94% 30.12 in 4.0 mi North 4.6 mph - 0.02 in Rain Light Rain
12:42 PM 62.6 °F 60.8 °F 94% 30.12 in 2.5 mi North 3.5 mph - 0.02 in Rain Light Rain
12:51 PM 63.0 °F 61.0 °F 93% 30.13 in 1.2 mi North 3.5 mph - 0.02 in Rain Light Rain
12:54 PM 62.6 °F 60.8 °F 94% 30.11 in 1.5 mi NNE 5.8 mph - 0.00 in Rain Light Rain
1:03 PM 62.6 °F 60.8 °F 94% 30.12 in 3.0 mi Variable 3.5 mph - 0.01 in Rain Light Rain
1:09 PM 62.6 °F 60.8 °F 94% 30.11 in 2.5 mi NE 3.5 mph - 0.01 in Rain Light Rain
1:28 PM 62.6 °F 60.8 °F 94% 30.11 in 1.8 mi Calm Calm - 0.01 in Rain Light Rain
1:33 PM 62.6 °F 60.8 °F 94% 30.11 in 2.0 mi Variable 4.6 mph - 0.01 in Rain Light Rain
1:43 PM 62.6 °F 60.8 °F 94% 30.11 in 4.0 mi NNE 4.6 mph - 0.01 in   Mostly Cloudy
1:51 PM 63.0 °F 61.0 °F 93% 30.11 in 6.0 mi NNE 3.5 mph - 0.01 in   Mostly Cloudy
2:40 PM 64.4 °F 60.8 °F 88% 30.11 in 9.0 mi Variable 4.6 mph - N/A   Overcast
2:51 PM 63.9 °F 61.0 °F 90% 30.12 in 3.0 mi NE 5.8 mph - N/A   Overcast
3:51 PM 63.9 °F 61.9 °F 93% 30.11 in 5.0 mi ENE 4.6 mph - N/A   Overcast
4:34 PM 62.6 °F 60.8 °F 94% 30.11 in 2.0 mi ENE 4.6 mph - N/A   Overcast
4:51 PM 63.0 °F 61.0 °F 93% 30.12 in 1.8 mi East 4.6 mph - N/A   Mostly Cloudy
5:01 PM 62.6 °F 62.6 °F 100% 30.11 in 3.0 mi ENE 4.6 mph - N/A   Mostly Cloudy
5:09 PM 64.4 °F 62.6 °F 94% 30.11 in 2.0 mi Calm Calm - N/A   Mostly Cloudy
5:36 PM 62.6 °F 62.6 °F 100% 30.12 in 1.2 mi Calm Calm - N/A   Mostly Cloudy
5:51 PM 63.0 °F 61.9 °F 96% 30.14 in 1.0 mi Calm Calm - N/A   Mostly Cloudy
5:57 PM 62.6 °F 62.6 °F 100% 30.14 in 1.2 mi ESE 5.8 mph - N/A   Mostly Cloudy
6:21 PM 62.6 °F 60.8 °F 94% 30.13 in 1.8 mi ESE 6.9 mph - N/A   Mostly Cloudy
6:29 PM 62.6 °F 60.8 °F 94% 30.13 in 2.0 mi East 4.6 mph - N/A   Scattered Clouds
6:35 PM 62.6 °F 60.8 °F 94% 30.14 in 2.5 mi East 4.6 mph - N/A   Mostly Cloudy
6:51 PM 61.9 °F 61.0 °F 97% 30.14 in 3.0 mi East 6.9 mph - N/A   Mostly Cloudy
7:04 PM 62.6 °F 60.8 °F 94% 30.14 in 4.0 mi East 3.5 mph - N/A   Mostly Cloudy
7:39 PM 62.6 °F 60.8 °F 94% 30.15 in 10.0 mi ESE 3.5 mph - N/A   Mostly Cloudy
7:51 PM 61.9 °F 59.9 °F 93% 30.15 in 9.0 mi ESE 4.6 mph - N/A   Overcast
8:51 PM 61.0 °F 59.9 °F 96% 30.16 in 10.0 mi East 4.6 mph - N/A   Mostly Cloudy
9:15 PM 60.8 °F 60.8 °F 100% 30.17 in 4.0 mi Calm Calm - N/A   Mostly Cloudy
9:42 PM 60.8 °F 59.0 °F 94% 30.17 in 7.0 mi East 4.6 mph - N/A   Mostly Cloudy
9:51 PM 61.0 °F 59.0 °F 93% 30.18 in 5.0 mi East 4.6 mph - N/A   Mostly Cloudy
10:00 PM 60.8 °F 59.0 °F 94% 30.17 in 9.0 mi ENE 4.6 mph - N/A   Mostly Cloudy
10:32 PM 60.8 °F 59.0 °F 94% 30.16 in 5.0 mi Calm Calm - N/A   Scattered Clouds
10:51 PM 59.9 °F 59.0 °F 97% 30.18 in 4.0 mi Calm Calm - N/A   Scattered Clouds
11:03 PM 60.8 °F 59.0 °F 94% 30.17 in 4.0 mi NE 3.5 mph - N/A   Mostly Cloudy
11:21 PM 60.8 °F 59.0 °F 94% 30.17 in 10.0 mi NNE 3.5 mph - N/A   Mostly Cloudy
11:30 PM 60.8 °F 59.0 °F 94% 30.17 in 10.0 mi Calm Calm - N/A   Overcast
11:51 PM 59.9 °F 57.9 °F 93% 30.18 in 7.0 mi Calm Calm - 0.00 in Rain Light Rain